SCP
0 0 0 0 0 0 0 0 0 0 0 0 0 0 0 0 0 0 0 0 0 0 0 0 0 0 0 0 0 0 0 0 0 0 0 0 0 0 0 0 0 0 0
0 0 0 0 0 0 0 0 0 0 0 0 0 0 0 0 0 0 0 0 0 0 0 0 0 0 0 0 0 0 0 0 0 0 0 0 0 0 0 0 0 0 0
0 0 0 0 0 0 0 0 0 0 0 0 0 0 0 0 0 0 0 0 0 0 0 0 0 0 0 0 0 0 0 0 0 0 0 0 0 0 0 0 0 0 0
0 0 0 0 0 0 0 0 0 0 0 0 0 0 0 0 0 0 0 0 0 0 0 0 0 0 0 0 0 0 0 0 0 0 0 0 0 0 0 0 0 0 0
0 0 0 0 0 0 0 0 0 0 0 0 0 0 0 0 0 0 0 0 0 0 0 0 0 0 0 0 0 0 0 0 0 0 0 0 0 0 0 0 0 0 0
0 0 0 0 0 0 0 0 0 0 0 0 0 0 0 0 0 0 0 0 0 0 0 0 0 0 0 0 0 0 0 0 0 0 0 0 0 0 0 0 0 0 0
0 0 0 0 0 0 0 0 0 0 0 0 0 0 0 0 0 0 0 0 0 0 0 0 0 0 0 0 0 0 0 0 0 0 0 0 0 0 0 0 0 0 0
0 0 0 0 0 0 0 0 0 0 0 0 0 0 0 0 0 0 0 0 0 0 0 0 0 0 0 0 0 0 0 0 0 0 0 0 0 0 0 0 0 0 0
0 0 0 0 0 0 0 0 0 0 0 0 0 0 0 0 0 0 0 0 0 0 0 0 0 0 0 0 0 0 0 0 0 0 0 0 0 0 0 0 0 0 0
0 0 0 0 -0 -0 -0 -0 -0 0 0 0 0 0 0 0 0 0 0 0 0 0 0 0 0 0 0 0 0 0 0 0 0 0 0 0 0 0 0 0 0 0 0
0 0 -0 -0 -0 -0 -0 -0 0 0 0 0 0 0 0 0 0 0 0 0 0 0 0 0 0 0 0 0 0 0 0 0 0 0 0 0 0 0 0 0 0 0 0
0 0 0 0 0 0 0 0 0 0 0 0 0 0 0 0 0 0 0 0 0 0 0 0 0 0 0 0 0 0 0 0 0 0 0 0 0 0 0 0 0 0 0
0 0 0 0 0 0 0 0 0 0 0 0 0 0 0 0 0 0 0 0 0 0 0 0 0 0 0 0 0 0 0 0 0 0 0 0 0 0 0 0 0 0 0
0 0 0 0 0 0 0 0 0 0 0 0 0 0 0 0 0 0 0 0 0 0 0 0 0 0 0 0 0 0 0 0 0 0 0 0 0 0 0 0 0 0 0
0 0 0 0 0 0 0 0 0 0 0 0 0 0 0 0 0 0 0 0 0 0 0 0 0 0 0 0 0 0 0 0 0 0 0 0 0 0 0 0 0 0 0
0 0 0 0 0 0 0 0 0 0 0 0 0 0 0 0 0 0 0 0 0 0 0 0 0 0 0 0 0 0 0 0 0 0 0 0 0 0 0 0 0 0 0
0 0 0 0 0 0 0 0 0 0 0 0 0 0 0 0 0 0 0 0 0 0 0 0 0 0 0 0 0 0 0 0 0 0 0 0 0 0 0 0 0 0 0
0 0 0 0 0 0 0 0 0 0 0 0 0 0 0 0 0 0 0 0 0 0 0 0 0 0 0 0 0 0 0 0 0 0 0 0 0 0 0 0 0 0 0
0 0 0 0 0 0 0 0 0 0 0 0 0 0 0 0 0 0 0 0 0 0 0 0 0 0 0 0 0 0 0 0 0 0 0 0 0 0 0 0 0 0 0
0 0 0 0 0 0 0 0 0 0 0 0 0 0 0 0 0 0 0 0 0 0 0 0 0 0 0 0 0 0 0 0 0 0 0 0 0 0 0 0 0 0 0
0 0 0 0 0 0 0 0 0 0 0 0 0 0 0 0 0 0 0 0 0 0 0 0 0 0 0 0 0 0 0 0 0 0 0 0 0 0 0 0 0 0 0
0 0 0 0 0 0 0 0 0 0 0 0 0 0 0 0 0 0 0 0 0 0 0 0 0 0 0 0 0 0 0 0 0 0 0 0 0 0 0 0 0 0 0
0 0 0 0 0 0 0 0 0 0 0 0 0 0 0 0 0 0 0 0 0 0 0 0 0 0 0 0 0 0 0 0 0 0 0 0 0 0 0 0 0 0 0
0 0 0 0 0 0 0 0 0 0 0 0 0 0 0 0 0 0 0 0 0 0 0 0 0 0 0 0 0 0 0 0 0 0 0 0 0 0 0 0 0 0 0
0 0 0 0 0 0 0 0 0 0 0 0 0 0 0 0 0 0 0 0 0 0 0 0 0 0 0 0 0 0 0 0 0 0 0 0 0 0 0 0 0 0 0
0 0 0 0 0 0 0 0 0 0 0 0 0 0 0 0 0 0 0 0 0 0 0 0 0 0 0 0 0 0 0 0 0 0 -0 -0 0 0 0 0 0 -0 -0
Wind_Speed_500mb
21 16 13 10 7 7 8 8 8 9 10 12 16 19 20 23 28 31 32 29 27 27 28 26 27 28 29 30 32 34 37 39 44 47 47 45 49 51 52 50 48 46 43
19 15 11 9 8 8 10 11 10 9 10 12 13 16 19 23 24 24 24 25 25 24 25 26 25 26 27 29 31 33 36 38 42 46 45 44 43 45 48 50 47 42 39
15 11 9 10 11 10 12 13 14 14 14 13 13 16 20 22 24 26 27 27 26 26 26 26 26 28 29 32 34 37 38 40 42 45 46 45 44 45 46 44 43 40 38
11 11 11 12 14 16 17 16 16 16 17 18 18 18 20 22 24 26 29 30 30 30 30 31 33 34 35 37 39 40 41 42 43 45 46 46 45 44 45 45 43 39 36
6 8 11 14 15 17 18 19 20 21 22 23 24 25 26 27 28 30 32 34 35 37 38 39 40 41 42 43 44 45 45 45 46 47 47 47 45 45 43 42 45 43 40
5 9 11 12 15 18 21 23 25 26 27 28 30 30 30 33 35 36 38 40 42 44 46 47 49 50 50 50 50 49 48 48 49 48 47 46 44 43 44 44 46 47 47
4 9 13 18 20 22 25 29 31 33 34 35 36 37 36 36 38 42 46 50 52 53 54 55 56 55 54 54 54 54 53 53 53 50 48 45 45 44 48 48 47 50 54
10 12 17 21 24 26 29 31 33 35 37 38 40 43 44 41 43 44 46 51 56 58 58 58 60 58 56 54 53 53 51 50 50 50 50 47 47 47 48 51 52 53 56
11 20 27 30 34 38 40 39 39 40 40 39 40 41 44 44 45 45 48 53 56 57 54 55 55 55 52 52 51 50 50 48 47 47 47 47 49 49 47 46 44 48 53
23 28 34 40 46 49 51 48 47 46 46 44 42 42 43 44 45 46 48 50 53 55 54 54 53 52 49 48 47 44 44 42 42 42 41 41 44 45 43 40 42 42 42
29 33 36 42 46 48 48 47 46 46 46 47 46 45 43 42 40 41 41 42 45 50 51 49 47 47 45 44 43 40 39 39 39 39 38 37 39 40 36 37 37 38 41
33 36 40 41 42 42 41 40 38 38 39 41 41 40 41 42 43 41 40 39 36 37 38 38 37 36 36 34 36 37 38 36 34 35 36 36 38 40 42 37 36 35 33
37 40 41 43 42 42 42 42 41 41 42 43 44 44 40 37 37 39 39 37 32 26 28 30 29 30 30 29 27 25 29 31 32 37 36 32 33 34 35 28 27 27 25
46 48 48 47 45 46 46 46 44 42 41 39 37 38 37 32 28 25 26 26 29 24 21 21 20 22 23 25 26 30 34 32 30 24 26 25 24 23 24 22 22 23 20
51 52 52 51 48 46 45 43 41 39 39 38 36 31 29 28 25 22 19 18 19 22 25 24 23 24 27 26 23 23 23 22 23 20 17 16 17 18 19 20 20 21 24
52 52 52 51 50 48 44 42 43 41 38 37 35 33 29 27 25 24 20 23 23 21 22 25 21 19 19 19 17 16 16 16 13 11 11 10 12 15 17 18 19 22 26
56 55 53 53 49 43 41 38 35 36 34 35 33 31 31 28 28 27 24 24 24 22 20 20 18 15 14 13 12 10 7 5 4 5 9 11 12 13 16 18 20 22 25
53 52 53 50 43 40 38 36 35 33 33 34 30 29 28 25 24 24 23 22 21 19 16 15 11 8 5 2 2 2 3 5 7 9 10 11 14 16 17 20 21 24 27
49 51 48 42 39 37 36 35 33 31 30 29 28 28 28 28 27 25 22 19 14 9 7 5 2 2 5 6 8 9 10 11 11 13 14 14 16 17 19 22 27 29 30
46 46 43 40 39 37 37 35 33 34 33 31 29 29 28 29 26 20 16 10 5 2 4 6 10 12 14 15 15 14 13 14 16 17 17 17 18 20 22 24 25 26 28
43 43 42 39 38 37 35 34 35 34 33 32 30 27 25 20 16 11 7 5 8 11 14 16 18 19 18 17 18 18 17 17 18 18 18 18 20 22 24 25 26 26 26
40 38 38 37 38 38 36 35 33 32 29 26 24 20 14 10 8 8 10 13 16 19 22 22 20 20 20 19 19 18 17 18 19 19 19 21 22 22 23 24 24 24 24
33 35 35 34 34 34 33 31 30 26 24 21 18 14 10 9 11 14 19 22 24 23 22 22 21 20 19 18 18 18 18 19 19 20 20 19 19 20 22 23 23 24 25
29 27 27 28 28 27 26 25 22 20 18 17 15 12 11 15 20 23 25 24 24 23 21 20 18 16 16 17 17 18 19 18 17 17 17 18 20 22 22 22 23 24 26
18 18 18 17 18 19 17 15 14 14 16 17 15 15 20 24 26 26 25 23 23 22 20 18 17 15 15 16 17 17 15 15 16 17 18 19 20 20 19 20 21 23 23
7 5 5 7 9 10 10 11 12 14 16 18 21 25 27 28 28 26 24 23 22 20 18 17 15 14 13 12 12 13 14 15 16 18 20 22 20 20 21 23 24 24 26
Wind_Direction_500mb
94 92 89 87 71 32 1 342 325 302 285 263 252 248 259 262 261 261 262 261 267 263 264 265 268 272 278 283 283 283 281 278 275 282 289 291 291 294 295 297 299 300 297
80 74 62 48 28 355 340 339 335 322 302 283 268 261 263 266 263 264 262 264 262 262 263 266 270 275 281 284 287 287 287 286 284 288 290 292 291 292 295 298 300 300 299
52 38 28 20 12 354 348 339 325 322 318 311 295 279 274 272 270 269 268 266 266 267 270 274 277 280 284 288 292 293 292 290 289 290 292 294 296 296 295 295 297 299 300
24 16 11 1 352 345 338 330 325 319 305 297 294 290 285 283 283 281 277 275 273 271 272 273 277 282 287 290 290 290 289 289 289 289 290 292 293 294 294 298 298 299 299
18 24 12 2 352 341 335 330 325 317 311 309 300 289 286 284 283 280 277 275 275 274 273 274 277 280 283 285 285 285 285 285 285 286 287 288 290 291 292 297 302 303 303
336 338 340 344 343 336 331 326 324 323 322 316 308 301 297 288 284 280 278 276 275 276 277 278 279 280 281 282 282 281 281 281 281 281 282 285 289 290 294 298 301 303 306
48 25 7 3 356 349 344 339 333 329 325 320 317 314 312 306 294 287 282 280 281 281 282 283 283 284 284 283 282 281 281 280 280 280 281 282 283 287 291 294 298 301 303
13 6 3 355 348 344 338 332 327 323 321 319 317 315 313 312 305 298 290 283 279 277 277 278 280 281 281 281 281 280 280 278 279 280 281 281 283 286 291 299 303 305 305
347 341 337 335 334 332 329 324 317 314 312 308 304 303 303 304 304 304 299 293 287 283 280 279 280 281 282 281 280 280 278 274 272 273 276 280 285 293 300 302 303 304 308
327 329 328 327 325 321 318 315 312 309 304 298 294 292 292 293 295 297 299 298 295 290 283 277 274 274 274 274 275 274 274 273 271 272 275 283 291 294 300 300 301 303 306
317 317 319 320 318 315 312 310 308 307 303 300 298 298 294 291 289 290 292 293 293 291 285 279 276 275 275 278 279 277 272 268 268 271 275 280 286 292 300 304 305 301 303
311 313 313 312 311 311 311 309 307 309 309 308 307 305 303 302 300 298 297 300 299 295 290 282 278 274 273 274 277 275 275 275 278 285 290 293 297 300 301 304 305 305 307
303 303 303 306 310 314 313 309 306 306 308 310 311 310 308 307 305 305 306 308 305 301 300 292 285 280 278 274 274 269 268 279 288 288 286 287 294 301 305 310 311 315 318
299 299 301 304 306 307 308 308 309 308 309 309 311 310 309 309 311 315 316 316 310 305 300 294 293 286 281 278 280 283 285 286 287 292 294 298 300 302 305 315 318 318 318
293 298 300 301 302 303 302 301 302 305 307 308 308 309 312 312 315 313 313 311 308 305 296 292 287 288 283 279 279 279 286 294 298 299 305 310 307 310 324 327 334 335 339
292 295 299 301 302 303 303 301 302 302 304 303 304 304 305 306 302 299 302 291 281 279 280 279 276 272 279 284 289 293 299 308 315 325 318 315 326 338 340 350 355 356 353
286 289 295 298 296 292 290 288 289 291 290 289 292 296 296 297 298 298 295 289 295 299 292 284 288 288 287 290 294 307 327 336 340 1 352 350 1 7 4 9 6 359 353
281 287 292 291 288 287 285 283 281 280 281 282 286 285 292 304 301 302 304 302 296 294 285 281 284 289 298 307 39 76 82 66 53 53 43 23 26 20 12 7 7 6 5
280 285 284 285 286 284 283 282 281 279 276 275 273 278 294 302 301 302 305 300 296 289 282 274 237 126 116 119 111 102 98 92 83 67 53 31 23 17 11 11 10 6 4
277 277 277 276 278 278 279 279 277 277 276 274 271 275 283 291 292 295 296 292 281 203 139 139 132 126 122 119 116 109 92 73 61 52 42 30 24 21 16 14 12 8 4
269 273 278 283 283 278 271 268 268 268 267 270 269 273 280 280 279 271 257 201 157 142 138 134 128 123 115 103 90 81 74 66 58 49 40 31 26 20 18 16 14 12 9
273 276 278 278 276 273 268 262 260 263 265 264 265 265 268 265 242 209 178 156 144 138 133 125 118 109 100 91 82 72 63 55 48 42 37 32 28 24 20 18 17 14 12
278 277 275 274 272 268 265 262 259 258 255 249 245 244 242 217 187 165 153 146 139 132 127 121 113 104 96 87 79 69 59 52 47 43 38 34 32 31 28 26 23 21 23
282 280 276 272 269 265 262 257 252 247 237 226 223 218 199 173 160 153 146 141 136 131 125 117 112 109 101 89 77 67 59 54 50 46 40 35 34 33 30 27 29 30 28
297 289 280 271 262 257 253 242 227 212 204 203 200 186 171 161 155 149 144 140 134 132 133 133 127 113 95 82 75 68 64 60 55 46 42 42 39 35 33 32 32 34 36
329 314 282 255 239 227 215 201 189 184 184 180 171 162 159 155 151 146 144 143 144 145 139 128 117 108 99 91 87 80 69 58 51 40 43 42 38 39 41 40 38 36 37
Wind_Speed_850mb
21 16 13 10 7 7 8 8 8 9 10 12 16 19 20 23 28 31 32 29 27 27 28 26 27 28 29 30 32 34 37 39 44 47 47 45 49 51 52 50 48 46 43
19 15 11 9 8 8 10 11 10 9 10 12 13 16 19 23 24 24 24 25 25 24 25 26 25 26 27 29 31 33 36 38 42 46 45 44 43 45 48 50 47 42 39
15 11 9 10 11 10 12 13 14 14 14 13 13 16 20 22 24 26 27 27 26 26 26 26 26 28 29 32 34 37 38 40 42 45 46 45 44 45 46 44 43 40 38
11 11 11 12 14 16 17 16 16 16 17 18 18 18 20 22 24 26 29 30 30 30 30 31 33 34 35 37 39 40 41 42 43 45 46 46 45 44 45 45 43 39 36
6 8 11 14 15 17 18 19 20 21 22 23 24 25 26 27 28 30 32 34 35 37 38 39 40 41 42 43 44 45 45 45 46 47 47 47 45 45 43 42 45 43 40
5 9 11 12 15 18 21 23 25 26 27 28 30 30 30 33 35 36 38 40 42 44 46 47 49 50 50 50 50 49 48 48 49 48 47 46 44 43 44 44 46 47 47
4 9 13 18 20 22 25 29 31 33 34 35 36 37 36 36 38 42 46 50 52 53 54 55 56 55 54 54 54 54 53 53 53 50 48 45 45 44 48 48 47 50 54
10 12 17 21 24 26 29 31 33 35 37 38 40 43 44 41 43 44 46 51 56 58 58 58 60 58 56 54 53 53 51 50 50 50 50 47 47 47 48 51 52 53 56
11 20 27 30 34 38 40 39 39 40 40 39 40 41 44 44 45 45 48 53 56 57 54 55 55 55 52 52 51 50 50 48 47 47 47 47 49 49 47 46 44 48 53
23 28 34 40 46 49 51 48 47 46 46 44 42 42 43 44 45 46 48 50 53 55 54 54 53 52 49 48 47 44 44 42 42 42 41 41 44 45 43 40 42 42 42
29 33 36 42 46 48 48 47 46 46 46 47 46 45 43 42 40 41 41 42 45 50 51 49 47 47 45 44 43 40 39 39 39 39 38 37 39 40 36 37 37 38 41
33 36 40 41 42 42 41 40 38 38 39 41 41 40 41 42 43 41 40 39 36 37 38 38 37 36 36 34 36 37 38 36 34 35 36 36 38 40 42 37 36 35 33
37 40 41 43 42 42 42 42 41 41 42 43 44 44 40 37 37 39 39 37 32 26 28 30 29 30 30 29 27 25 29 31 32 37 36 32 33 34 35 28 27 27 25
46 48 48 47 45 46 46 46 44 42 41 39 37 38 37 32 28 25 26 26 29 24 21 21 20 22 23 25 26 30 34 32 30 24 26 25 24 23 24 22 22 23 20
51 52 52 51 48 46 45 43 41 39 39 38 36 31 29 28 25 22 19 18 19 22 25 24 23 24 27 26 23 23 23 22 23 20 17 16 17 18 19 20 20 21 24
52 52 52 51 50 48 44 42 43 41 38 37 35 33 29 27 25 24 20 23 23 21 22 25 21 19 19 19 17 16 16 16 13 11 11 10 12 15 17 18 19 22 26
56 55 53 53 49 43 41 38 35 36 34 35 33 31 31 28 28 27 24 24 24 22 20 20 18 15 14 13 12 10 7 5 4 5 9 11 12 13 16 18 20 22 25
53 52 53 50 43 40 38 36 35 33 33 34 30 29 28 25 24 24 23 22 21 19 16 15 11 8 5 2 2 2 3 5 7 9 10 11 14 16 17 20 21 24 27
49 51 48 42 39 37 36 35 33 31 30 29 28 28 28 28 27 25 22 19 14 9 7 5 2 2 5 6 8 9 10 11 11 13 14 14 16 17 19 22 27 29 30
46 46 43 40 39 37 37 35 33 34 33 31 29 29 28 29 26 20 16 10 5 2 4 6 10 12 14 15 15 14 13 14 16 17 17 17 18 20 22 24 25 26 28
43 43 42 39 38 37 35 34 35 34 33 32 30 27 25 20 16 11 7 5 8 11 14 16 18 19 18 17 18 18 17 17 18 18 18 18 20 22 24 25 26 26 26
40 38 38 37 38 38 36 35 33 32 29 26 24 20 14 10 8 8 10 13 16 19 22 22 20 20 20 19 19 18 17 18 19 19 19 21 22 22 23 24 24 24 24
33 35 35 34 34 34 33 31 30 26 24 21 18 14 10 9 11 14 19 22 24 23 22 22 21 20 19 18 18 18 18 19 19 20 20 19 19 20 22 23 23 24 25
29 27 27 28 28 27 26 25 22 20 18 17 15 12 11 15 20 23 25 24 24 23 21 20 18 16 16 17 17 18 19 18 17 17 17 18 20 22 22 22 23 24 26
18 18 18 17 18 19 17 15 14 14 16 17 15 15 20 24 26 26 25 23 23 22 20 18 17 15 15 16 17 17 15 15 16 17 18 19 20 20 19 20 21 23 23
7 5 5 7 9 10 10 11 12 14 16 18 21 25 27 28 28 26 24 23 22 20 18 17 15 14 13 12 12 13 14 15 16 18 20 22 20 20 21 23 24 24 26
Wind_Direction_850mb
94 92 89 87 71 32 1 342 325 302 285 263 252 248 259 262 261 261 262 261 267 263 264 265 268 272 278 283 283 283 281 278 275 282 289 291 291 294 295 297 299 300 297
80 74 62 48 28 355 340 339 335 322 302 283 268 261 263 266 263 264 262 264 262 262 263 266 270 275 281 284 287 287 287 286 284 288 290 292 291 292 295 298 300 300 299
52 38 28 20 12 354 348 339 325 322 318 311 295 279 274 272 270 269 268 266 266 267 270 274 277 280 284 288 292 293 292 290 289 290 292 294 296 296 295 295 297 299 300
24 16 11 1 352 345 338 330 325 319 305 297 294 290 285 283 283 281 277 275 273 271 272 273 277 282 287 290 290 290 289 289 289 289 290 292 293 294 294 298 298 299 299
18 24 12 2 352 341 335 330 325 317 311 309 300 289 286 284 283 280 277 275 275 274 273 274 277 280 283 285 285 285 285 285 285 286 287 288 290 291 292 297 302 303 303
336 338 340 344 343 336 331 326 324 323 322 316 308 301 297 288 284 280 278 276 275 276 277 278 279 280 281 282 282 281 281 281 281 281 282 285 289 290 294 298 301 303 306
48 25 7 3 356 349 344 339 333 329 325 320 317 314 312 306 294 287 282 280 281 281 282 283 283 284 284 283 282 281 281 280 280 280 281 282 283 287 291 294 298 301 303
13 6 3 355 348 344 338 332 327 323 321 319 317 315 313 312 305 298 290 283 279 277 277 278 280 281 281 281 281 280 280 278 279 280 281 281 283 286 291 299 303 305 305
347 341 337 335 334 332 329 324 317 314 312 308 304 303 303 304 304 304 299 293 287 283 280 279 280 281 282 281 280 280 278 274 272 273 276 280 285 293 300 302 303 304 308
327 329 328 327 325 321 318 315 312 309 304 298 294 292 292 293 295 297 299 298 295 290 283 277 274 274 274 274 275 274 274 273 271 272 275 283 291 294 300 300 301 303 306
317 317 319 320 318 315 312 310 308 307 303 300 298 298 294 291 289 290 292 293 293 291 285 279 276 275 275 278 279 277 272 268 268 271 275 280 286 292 300 304 305 301 303
311 313 313 312 311 311 311 309 307 309 309 308 307 305 303 302 300 298 297 300 299 295 290 282 278 274 273 274 277 275 275 275 278 285 290 293 297 300 301 304 305 305 307
303 303 303 306 310 314 313 309 306 306 308 310 311 310 308 307 305 305 306 308 305 301 300 292 285 280 278 274 274 269 268 279 288 288 286 287 294 301 305 310 311 315 318
299 299 301 304 306 307 308 308 309 308 309 309 311 310 309 309 311 315 316 316 310 305 300 294 293 286 281 278 280 283 285 286 287 292 294 298 300 302 305 315 318 318 318
293 298 300 301 302 303 302 301 302 305 307 308 308 309 312 312 315 313 313 311 308 305 296 292 287 288 283 279 279 279 286 294 298 299 305 310 307 310 324 327 334 335 339
292 295 299 301 302 303 303 301 302 302 304 303 304 304 305 306 302 299 302 291 281 279 280 279 276 272 279 284 289 293 299 308 315 325 318 315 326 338 340 350 355 356 353
286 289 295 298 296 292 290 288 289 291 290 289 292 296 296 297 298 298 295 289 295 299 292 284 288 288 287 290 294 307 327 336 340 1 352 350 1 7 4 9 6 359 353
281 287 292 291 288 287 285 283 281 280 281 282 286 285 292 304 301 302 304 302 296 294 285 281 284 289 298 307 39 76 82 66 53 53 43 23 26 20 12 7 7 6 5
280 285 284 285 286 284 283 282 281 279 276 275 273 278 294 302 301 302 305 300 296 289 282 274 237 126 116 119 111 102 98 92 83 67 53 31 23 17 11 11 10 6 4
277 277 277 276 278 278 279 279 277 277 276 274 271 275 283 291 292 295 296 292 281 203 139 139 132 126 122 119 116 109 92 73 61 52 42 30 24 21 16 14 12 8 4
269 273 278 283 283 278 271 268 268 268 267 270 269 273 280 280 279 271 257 201 157 142 138 134 128 123 115 103 90 81 74 66 58 49 40 31 26 20 18 16 14 12 9
273 276 278 278 276 273 268 262 260 263 265 264 265 265 268 265 242 209 178 156 144 138 133 125 118 109 100 91 82 72 63 55 48 42 37 32 28 24 20 18 17 14 12
278 277 275 274 272 268 265 262 259 258 255 249 245 244 242 217 187 165 153 146 139 132 127 121 113 104 96 87 79 69 59 52 47 43 38 34 32 31 28 26 23 21 23
282 280 276 272 269 265 262 257 252 247 237 226 223 218 199 173 160 153 146 141 136 131 125 117 112 109 101 89 77 67 59 54 50 46 40 35 34 33 30 27 29 30 28
297 289 280 271 262 257 253 242 227 212 204 203 200 186 171 161 155 149 144 140 134 132 133 133 127 113 95 82 75 68 64 60 55 46 42 42 39 35 33 32 32 34 36
329 314 282 255 239 227 215 201 189 184 184 180 171 162 159 155 151 146 144 143 144 145 139 128 117 108 99 91 87 80 69 58 51 40 43 42 38 39 41 40 38 36 37